EW8682 Weather Reports


Display with metric or nautical units.
time (UTC)temp
F
wind
direction
speed
MPH
gust
MPH
rain 1hr
in
rain 24hr
in
rain mn
in
humidity
%
barometer
mb
20220520234548 61 177 3.0 6.0 0.00 0.02 0.02 77 1001.4
20220520233044 61 146 1.0 4.0 0.00 0.02 0.02 76 1001.3
20220520231543 62 155 1.0 6.0 0.00 0.02 0.02 74 1001.4
20220520230118 62 159 1.0 6.0 0.00 0.02 0.02 74 1001.4
20220520224541 62 100 2.0 8.0 0.00 0.02 0.02 73 1001.4
20220520223041 63 160 2.0 7.0 0.00 0.02 0.02 73 1001.4
20220520221540 63 147 1.0 8.0 0.00 0.02 0.02 72 1001.5
20220520220038 63 165 2.0 7.0 0.00 0.02 0.02 72 1001.3
20220520214538 63 165 2.0 8.0 0.00 0.02 0.02 70 1001.3
20220520213047 64 171 3.0 10.0 0.00 0.02 0.02 70 1001.3
20220520211542 64 173 3.0 7.0 0.00 0.02 0.02 70 1001.2
20220520210036 64 145 1.0 7.0 0.00 0.02 0.02 67 1001.2
20220520204536 64 168 3.0 6.0 0.00 0.02 0.02 67 1001.2
20220520203055 64 100 1.0 8.0 0.00 0.02 0.02 68 1001.3
20220520201535 64 169 1.0 7.0 0.00 0.02 0.02 67 1001.3
20220520200033 64 174 2.0 8.0 0.00 0.02 0.02 68 1001.2
20220520194533 65 184 2.0 8.0 0.00 0.02 0.02 68 1001.2
20220520193032 65 155 2.0 7.0 0.00 0.02 0.02 67 1001.1
20220520191540 65 158 1.0 9.0 0.00 0.02 0.02 67 1001.2
20220520190032 64 183 5.0 8.0 0.00 0.02 0.02 70 1001.2
20220520184531 62 169 2.0 6.0 0.00 0.02 0.02 71 1001.1
20220520183020 62 154 1.0 5.0 0.00 0.02 0.02 74 1001.2
20220520181518 61 135 0.0 6.0 0.00 0.02 0.02 76 1001.2
20220520180015 61 165 0.0 5.0 0.00 0.02 0.02 78 1001.2
20220520174512 60 171 1.0 4.0 0.00 0.02 0.02 80 1001.1
20220520173023 59 163 1.0 3.0 0.00 0.02 0.02 83 1001.2
20220520171509 58 178 1.0 5.0 0.00 0.02 0.02 85 1001.2
20220520170007 57 182 2.0 5.0 0.00 0.02 0.02 87 1001.2
20220520164518 57 186 2.0 4.0 0.00 0.02 0.02 88 1001.3
20220520163010 56 180 2.0 5.0 0.00 0.02 0.02 90 1001.4
20220520161506 56 163 0.0 2.0 0.00 0.02 0.02 91 1001.3
20220520160005 56 169 2.0 4.0 0.00 0.02 0.02 92 1001.2
20220520154504 55 173 0.0 4.0 0.00 0.02 0.02 93 1001.1
20220520153005 55 175 0.0 3.0 0.00 0.02 0.02 93 1000.9
20220520151503 55 173 0.0 2.0 0.00 0.02 0.02 93 1000.9
20220520150002 55 173 0.0 2.0 0.00 0.02 0.02 93 1000.7
20220520144502 54 173 0.0 2.0 0.00 0.02 0.02 93 1000.8
20220520143001 54 173 0.0 3.0 0.00 0.02 0.02 93 1000.6
20220520141611 54 173 0.0 2.0 0.00 0.02 0.02 93 1000.5
20220520140059 54 173 0.0 2.0 0.00 0.02 0.02 93 1000.5
20220520134559 54 173 0.0 2.0 0.00 0.02 0.02 93 1000.4
20220520133105 54 173 0.0 3.0 0.00 0.02 0.02 93 1000.3
20220520131558 54 173 0.0 2.0 0.00 0.02 0.02 93 1000.2
20220520130103 54 173 1.0 3.0 0.00 0.02 0.02 93 1000.1
20220520124558 54 173 1.0 4.0 0.00 0.02 0.02 93 1000.1
20220520123058 54 174 0.0 3.0 0.01 0.02 0.02 93 1000.1
20220520121554 54 174 0.0 3.0 0.01 0.02 0.02 93 1000.0
20220520120055 54 174 0.0 2.0 0.01 0.02 0.02 93 1000.1
20220520114558 54 169 1.0 3.0 0.02 0.02 0.02 92 1000.2
20220520113048 55 171 0.0 2.0 0.01 0.01 0.01 93 1000.2
20220520111549 55 171 0.0 2.0 0.01 0.01 0.01 92 1000.3
20220520110056 55 171 0.0 2.0 0.01 0.01 0.01 92 1000.2
20220520104545 55 171 0.0 3.0 0.00 0.00 0.00 92 1000.2
20220520103042 55 181 0.0 2.0 0.00 0.00 0.00 92 1000.3
20220520101541 55 182 0.0 4.0 0.00 0.00 0.00 92 1000.5
20220520100039 56 178 1.0 5.0 0.00 0.00 0.00 92 1000.5
20220520094545 56 169 0.0 2.0 0.00 0.00 0.00 91 1000.5
20220520093039 56 170 0.0 3.0 0.00 0.00 0.00 91 1000.6
20220520091543 56 171 0.0 2.0 0.00 0.00 0.00 91 1000.7
20220520090031 56 171 1.0 4.0 0.00 0.00 0.00 90 1000.8
20220520084531 57 171 0.0 2.0 0.00 0.00 0.00 89 1000.7
20220520083030 57 172 1.0 3.0 0.00 0.00 0.00 89 1000.8
20220520081526 57 172 1.0 3.0 0.00 0.00 0.00 88 1000.9
20220520080041 58 176 1.0 3.0 0.00 0.00 0.00 88 1001.1
20220520074534 58 171 0.0 3.0 0.00 0.00 0.00 88 1001.2
20220520073019 58 171 1.0 3.0 0.00 0.00 0.00 87 1001.3
20220520071526 58 171 0.0 3.0 0.00 0.00 0.00 86 1001.3
20220520070015 59 171 1.0 4.0 0.00 0.00 0.00 85 1001.5
20220520064514 58 173 0.0 3.0 0.00 0.00 0.00 85 1001.6
20220520063014 58 171 1.0 4.0 0.00 0.00 0.00 85 1001.5
20220520061522 58 171 2.0 5.0 0.00 0.00 0.00 84 1001.7
20220520060017 59 171 1.0 3.0 0.00 0.00 0.00 84 1001.8
20220520054513 59 171 0.0 3.0 0.00 0.00 0.00 84 1001.8
20220520053019 59 173 0.0 3.0 0.00 0.00 0.00 83 1002.0
20220520051511 59 178 0.0 2.0 0.00 0.00 0.00 83 1002.0
20220520050018 59 180 0.0 3.0 0.00 0.00 0.00 83 1002.0
20220520044510 59 180 1.0 3.0 0.00 0.00 0.00 83 1001.9
20220520043009 59 179 0.0 3.0 0.00 0.00 0.00 83 1001.8
20220520041508 59 180 1.0 3.0 0.00 0.00 0.00 82 1001.9
20220520040009 59 179 0.0 3.0 0.00 0.00 0.00 82 1001.9
20220520034513 59 177 1.0 3.0 0.00 0.00 0.00 82 1001.8
20220520033015 60 179 1.0 4.0 0.00 0.00 0.00 81 1001.7
20220520031511 60 166 0.0 5.0 0.00 0.00 0.00 80 1001.6
20220520030009 60 165 1.0 4.0 0.00 0.00 0.00 79 1001.6
20220520024524 61 163 1.0 3.0 0.00 0.00 0.00 77 1001.6
20220520023006 62 168 1.0 6.0 0.00 0.00 0.00 76 1001.6
20220520021505 63 169 1.0 3.0 0.00 0.00 0.00 74 1001.6
20220520020005 64 162 2.0 5.0 0.00 0.00 0.00 71 1001.5
20220520014504 66 163 3.0 6.0 0.00 0.00 0.00 68 1001.4
20220520013006 67 165 3.0 7.0 0.00 0.00 0.00 67 1001.2
20220520011503 68 165 2.0 6.0 0.00 0.00 0.00 65 1001.1
20220520010002 69 162 1.0 6.0 0.00 0.00 0.00 65 1001.1
20220520004600 70 166 2.0 7.0 0.00 0.00 0.00 62 1001.2
20220520003100 70 182 4.0 8.0 0.00 0.00 0.00 61 1001.2
20220520001600 71 192 1.0 10.0 0.00 0.00 0.00 60 1001.3
20220520000056 72 171 3.0 9.0 0.00 0.00 0.00 59 1001.4